SCP
0 0 0 0 0 0 0 0 0 0 0 0 0 0 0 0 0 0 0 0 1 1 1 1 1 1 1 1 1 0 0 0 0 0 0 0 0 0 0 0 0 0 0 0 0 0 0 0 0
0 0 0 0 0 0 0 0 0 0 0 0 0 0 0 0 0 0 0 0 1 1 1 1 1 2 1 1 1 1 0 0 0 0 0 0 0 0 0 0 0 0 0 0 0 0 0 0 0
0 0 0 0 0 0 0 0 0 0 0 0 0 0 0 0 0 0 0 1 1 1 1 1 1 2 2 1 1 1 0 0 0 0 0 0 0 0 0 0 0 0 0 0 0 0 0 0 0
0 0 0 0 0 0 0 0 0 0 0 0 0 0 0 0 0 0 1 1 1 1 1 1 1 2 2 1 1 1 0 0 0 0 0 0 0 0 0 0 0 0 0 0 0 0 0 0 0
0 0 0 0 0 0 0 0 0 0 0 0 0 0 0 0 1 1 1 1 1 1 1 2 2 2 2 1 1 1 0 0 0 0 0 0 0 0 0 0 0 0 0 0 0 0 0 0 0
0 0 0 0 0 0 0 0 0 0 0 0 0 0 0 1 1 1 1 1 1 1 2 2 2 1 1 1 1 1 0 0 0 0 0 0 0 0 0 0 0 0 0 0 0 0 0 0 0
0 0 0 0 0 0 0 0 0 0 0 0 0 0 1 1 2 1 1 1 1 1 2 2 1 1 1 1 1 1 0 0 0 0 0 0 0 0 0 0 0 0 0 1 0 0 0 0 0
0 0 0 0 0 0 0 0 0 0 0 0 0 0 1 2 2 2 1 1 1 1 2 2 1 1 1 1 0 0 0 0 0 0 0 0 0 0 0 0 0 0 1 1 1 0 0 0 0
0 0 0 0 0 0 0 0 0 0 0 0 0 1 1 1 2 1 1 1 1 1 2 2 1 1 1 1 0 0 0 0 0 0 0 0 0 0 0 0 0 0 0 1 0 0 0 0 0
0 0 0 0 0 0 0 0 0 0 0 0 0 1 1 1 1 1 1 1 1 1 1 2 1 1 1 1 0 0 0 0 0 0 0 0 0 0 0 0 0 0 0 0 0 0 0 0 0
0 0 0 0 0 0 0 0 0 0 0 0 0 1 1 1 1 1 1 1 1 1 1 1 1 1 1 1 0 0 0 0 0 0 0 0 0 0 0 0 0 0 0 0 0 0 0 0 0
0 0 0 0 0 0 0 0 0 0 0 0 1 1 1 1 1 1 1 1 1 1 1 1 1 1 1 1 1 0 0 0 0 0 0 0 0 0 0 0 0 0 0 0 0 0 0 0 0
0 0 0 0 0 0 0 0 0 0 0 0 1 1 1 1 1 1 1 1 1 1 1 1 1 1 1 1 1 1 0 0 0 0 0 0 0 0 0 0 0 0 0 0 0 0 0 0 0
0 0 0 0 0 0 0 0 0 0 0 0 0 1 1 1 1 1 1 1 1 1 1 1 1 1 1 1 1 1 0 0 0 0 0 0 0 0 0 0 0 0 0 0 0 0 0 0 0
0 0 0 0 0 0 0 0 0 0 0 0 0 1 1 1 1 1 1 1 1 1 1 1 1 1 1 1 1 1 1 0 0 0 1 0 0 0 0 0 0 0 0 0 0 0 0 0 0
0 0 0 0 0 0 0 0 0 0 0 0 0 0 1 1 1 1 1 1 1 1 1 1 1 1 1 1 1 1 1 0 0 0 1 1 0 0 0 0 0 0 0 0 0 0 0 0 0
0 0 0 0 0 0 0 0 0 0 0 0 0 0 1 1 1 1 1 1 1 1 2 2 1 1 1 1 1 1 1 0 0 0 0 0 0 0 0 0 0 0 0 0 0 0 0 0 0
0 0 0 0 0 0 0 0 0 0 0 0 0 0 0 1 1 1 1 1 1 1 2 2 2 1 1 1 1 1 1 1 1 0 0 0 0 0 0 0 0 0 0 0 0 0 0 0 0
0 0 0 0 0 0 0 0 0 0 0 0 0 0 0 0 1 1 1 1 1 2 2 2 2 2 2 1 1 1 1 1 1 1 1 0 0 0 1 1 0 0 1 1 1 0 0 0 0
0 0 0 0 0 0 0 0 0 0 0 0 0 0 0 0 1 1 1 1 1 2 2 2 3 2 2 2 2 2 1 1 1 1 1 1 1 1 1 1 1 1 1 1 1 1 0 0 0
0 0 0 0 0 0 0 0 0 0 0 0 0 0 0 0 0 1 1 1 1 2 2 3 3 3 3 3 3 2 2 2 2 1 1 1 1 1 1 1 1 1 1 1 1 1 0 0 0
0 0 0 0 0 0 0 0 0 0 0 0 0 0 0 0 0 0 1 1 2 2 2 2 2 3 3 3 4 3 3 3 2 2 2 1 1 1 1 1 1 1 1 1 1 1 0 0 0
0 0 0 0 0 0 0 0 0 0 0 0 0 0 0 0 0 0 1 1 2 2 2 1 1 2 3 3 4 4 4 3 3 2 1 1 1 1 1 1 1 1 1 1 1 1 0 0 0
0 0 0 0 0 0 0 0 0 0 0 0 0 0 0 0 0 0 0 1 1 2 1 1 1 1 2 3 3 4 3 3 3 2 1 1 1 1 1 1 1 1 1 1 1 1 0 0 0
0 0 0 0 0 0 0 0 0 0 0 0 0 0 0 0 0 0 0 0 1 1 1 1 1 1 1 2 2 3 3 2 2 1 1 1 1 1 1 1 1 1 1 1 1 1 1 0 0
0 0 0 0 0 0 0 0 0 0 0 0 0 0 0 0 0 0 0 0 0 1 1 1 1 1 1 1 1 2 2 2 1 1 1 1 1 1 1 1 1 1 1 1 1 1 1 1 0
0 0 0 0 0 0 0 0 0 0 0 0 0 0 0 0 -0 0 0 0 0 0 1 1 1 1 2 2 2 1 1 1 1 1 1 1 1 1 1 1 1 0 0 1 1 1 1 1 0
0 0 0 0 0 0 0 0 0 0 0 0 0 0 0 0 0 0 0 0 0 0 0 0 1 1 1 1 2 2 1 1 1 1 1 1 1 1 1 1 1 1 0 0 0 0 0 0 0
0 0 0 0 0 0 0 0 0 0 0 0 0 0 0 0 0 0 0 0 0 0 0 0 0 0 0 1 1 2 2 1 1 1 1 1 1 1 1 1 1 1 1 1 1 0 0 0 0
0 0 0 0 0 0 0 0 0 0 0 0 0 0 0 0 0 0 0 0 0 0 0 0 0 0 0 0 1 2 2 2 1 1 1 1 1 1 1 1 1 1 1 1 1 1 0 0 0
Wind_Speed
15 11 6 3 4 5 6 2 1 3 3 5 5 4 5 8 6 6 4 8 13 15 15 13 14 14 14 13 12 11 11 11 11 11 10 10 10 11 11 11 11 11 12 12 12 12 12 11 11
12 11 5 4 5 6 4 2 2 3 6 4 3 1 1 7 8 7 5 9 13 15 14 13 13 14 14 13 12 11 11 11 11 11 10 10 10 10 10 10 10 11 11 11 11 11 11 10 10
12 9 4 4 5 6 2 3 3 7 5 2 1 1 4 5 6 6 7 11 12 13 12 13 13 13 14 13 12 11 10 10 10 10 10 10 9 9 10 9 9 9 9 9 9 9 9 9 8
6 4 4 5 9 6 3 2 4 4 3 1 0 4 5 6 4 7 10 11 12 11 12 13 13 13 13 13 12 11 10 10 10 10 10 9 9 9 9 9 8 8 8 8 8 8 8 7 7
4 4 5 7 9 6 2 3 2 0 3 2 1 2 5 5 8 10 9 10 10 11 12 12 11 11 11 11 11 11 10 10 9 9 9 9 9 8 8 8 7 7 7 7 8 7 7 6 5
4 3 5 8 9 6 2 1 2 2 1 2 1 1 5 5 7 7 8 9 9 10 11 11 10 10 10 9 9 10 10 9 9 9 9 9 9 8 8 8 7 6 7 7 7 6 6 5 4
3 4 8 9 7 5 2 1 2 2 1 1 0 2 6 5 6 6 7 8 8 10 11 9 8 8 8 8 8 8 8 9 8 9 8 7 8 7 7 7 6 6 6 6 6 5 5 4 3
3 4 8 9 8 6 2 1 2 4 3 3 3 2 5 6 7 6 6 6 7 8 9 9 8 8 7 6 7 7 7 8 8 8 8 7 7 7 7 6 6 6 6 6 6 5 5 4 4
3 4 7 7 6 4 1 2 1 2 2 3 4 5 7 11 8 6 5 5 5 6 7 8 8 7 7 7 8 7 6 6 7 7 8 8 5 5 5 7 7 6 6 5 5 5 5 4 4
3 5 8 6 6 5 2 2 2 2 2 1 3 6 9 9 8 7 6 6 6 6 6 6 7 7 7 6 6 5 5 5 4 4 6 5 4 4 5 7 8 7 6 6 6 6 5 5 3
4 6 7 7 6 6 4 3 3 4 4 1 2 7 8 7 7 7 7 7 6 6 5 5 6 6 6 4 5 3 3 4 4 5 6 4 3 3 3 3 4 5 6 4 5 5 4 4 3
5 7 7 6 5 5 6 5 4 5 4 3 2 6 7 8 8 8 8 7 7 7 6 4 5 5 5 4 4 4 3 3 3 4 5 4 2 2 2 2 4 4 3 4 4 3 4 4 4
7 7 7 6 4 4 6 7 6 5 4 3 2 4 6 6 6 6 6 6 7 7 7 5 4 5 5 4 3 4 4 4 4 4 4 4 3 3 3 2 3 3 3 4 4 4 4 4 4
4 6 7 8 7 5 6 7 7 6 3 2 1 3 5 5 5 5 6 6 7 7 7 7 5 4 4 4 3 3 3 3 4 4 5 5 3 3 3 3 3 3 3 3 4 5 4 4 3
5 6 7 8 7 5 5 8 8 6 5 3 3 3 3 4 4 4 4 4 5 6 6 7 7 6 5 4 4 3 3 3 3 3 5 5 4 3 3 3 3 3 4 4 3 4 3 3 3
4 5 6 5 6 5 5 9 4 5 5 5 4 3 3 3 4 3 3 3 3 5 6 7 6 6 6 5 4 3 3 3 3 3 3 5 5 4 3 3 3 3 3 3 3 3 3 4 4
4 6 7 4 4 4 6 7 3 3 3 4 2 2 2 2 1 2 2 2 2 3 4 5 6 6 6 5 4 4 3 3 3 2 3 4 4 4 3 3 3 3 3 3 3 3 3 3 4
4 5 6 5 3 4 7 7 5 4 3 3 3 2 1 0 0 1 1 2 2 2 2 2 3 4 5 4 4 3 3 3 3 3 3 4 3 4 4 3 3 3 3 3 3 3 3 3 3
6 6 7 5 4 5 7 8 6 4 3 3 3 2 1 1 1 2 3 3 3 3 2 1 2 2 2 3 3 4 4 3 3 4 4 5 5 5 5 3 4 3 4 4 4 4 4 3 2
6 7 6 5 4 4 5 8 5 3 2 1 2 2 1 1 3 4 4 4 4 3 2 1 1 1 1 2 2 2 2 3 3 3 4 5 6 6 5 5 4 4 4 5 5 4 3 3 3
5 5 5 5 6 4 4 5 4 3 1 1 2 3 3 2 2 3 4 4 4 4 3 2 1 0 0 1 1 1 1 1 2 2 2 3 5 5 5 6 5 5 5 5 5 5 6 4 4
5 3 5 5 3 3 2 3 2 2 1 2 2 3 4 4 3 3 3 3 3 3 3 3 3 3 2 1 0 1 1 2 3 2 2 2 3 4 5 5 6 6 5 5 5 5 5 5 5
3 3 4 5 4 3 3 3 3 1 1 1 2 3 3 4 4 4 4 3 3 4 3 3 3 4 4 3 1 0 1 2 1 1 2 2 2 1 2 3 3 4 4 5 5 5 5 5 6
2 2 3 2 1 4 4 4 3 1 1 2 3 4 4 5 5 5 5 4 4 4 4 3 2 3 4 4 3 2 1 1 1 2 2 2 2 1 2 2 3 4 4 4 5 5 6 6 6
1 1 0 1 2 4 1 3 2 2 4 5 5 5 5 5 5 6 6 6 5 5 4 4 4 4 4 4 3 3 2 2 1 1 2 2 2 2 3 3 3 3 3 4 4 4 5 6 6
3 1 1 2 2 1 0 2 1 3 4 5 5 6 6 6 5 6 5 5 5 5 5 4 5 4 4 4 3 3 3 2 2 3 2 2 2 2 3 3 3 3 3 4 3 3 4 4 5
1 2 2 1 2 1 2 1 1 2 4 5 6 6 7 7 7 7 7 6 6 6 5 5 4 4 5 4 4 4 4 3 3 3 3 3 3 3 4 4 4 3 3 4 4 3 4 4 4
1 0 0 1 1 2 3 3 2 1 1 4 5 5 6 7 7 6 6 6 6 6 6 5 5 5 5 5 4 4 3 3 3 3 4 4 4 4 4 4 3 4 4 4 3 3 3 3 3
1 1 0 1 1 1 2 1 1 2 2 2 3 5 5 6 6 6 5 5 5 5 6 6 6 6 6 6 5 4 3 3 3 3 3 3 4 4 4 4 4 4 3 3 3 3 4 3 3
1 1 1 1 2 2 2 2 2 3 4 4 4 5 5 5 5 5 5 5 6 6 6 6 6 6 6 6 5 4 4 4 4 4 4 4 4 4 4 3 3 3 3 3 3 4 4 4 4
Wind_Direction
312 298 278 261 246 238 245 237 60 63 66 49 40 13 18 36 32 91 136 132 121 128 138 146 146 146 145 144 143 141 141 140 136 133 130 127 122 118 114 110 106 105 103 101 98 95 94 92 90
302 296 280 245 252 254 243 198 136 82 71 67 65 352 37 74 77 104 121 119 124 130 140 147 144 147 147 146 145 144 144 141 139 137 135 130 126 121 118 115 111 108 107 106 103 100 98 96 93
290 272 266 252 247 259 291 26 67 78 78 84 134 11 30 60 95 112 121 126 125 131 140 140 144 146 148 148 148 147 147 145 144 142 141 137 132 128 124 119 117 115 114 113 109 106 103 100 97
296 265 237 249 256 265 288 43 49 88 108 340 308 110 80 42 57 102 124 129 128 132 132 139 146 147 149 151 152 152 151 150 148 147 146 143 138 131 130 126 123 120 120 120 117 114 111 107 104
266 253 245 247 254 266 314 36 32 114 155 170 266 90 86 61 86 112 131 130 130 131 131 143 143 145 149 153 157 158 155 154 152 152 150 147 143 138 136 134 131 128 127 127 126 123 120 119 116
276 249 242 243 246 252 263 24 284 258 209 126 197 87 90 99 104 127 132 130 131 130 132 143 142 145 148 152 155 159 159 156 154 152 150 150 149 146 145 145 141 140 140 138 137 135 133 133 133
272 270 259 262 261 266 276 32 289 292 273 138 309 86 110 116 117 126 127 132 131 129 133 144 151 151 151 154 153 156 159 157 157 156 152 152 153 152 151 154 154 156 155 153 147 147 149 149 154
288 278 260 260 260 263 299 340 333 340 345 41 15 34 109 126 125 126 128 130 129 132 140 151 158 160 161 160 160 156 158 160 161 159 156 156 159 158 161 164 169 169 169 166 161 159 165 172 182
294 253 248 253 262 268 306 315 343 358 356 49 39 38 100 124 130 131 130 124 128 139 147 155 161 164 165 168 165 159 157 163 163 162 162 164 176 175 175 183 177 178 176 177 178 180 185 192 206
223 243 248 267 290 302 320 328 327 282 246 156 87 78 105 125 142 152 157 157 155 160 161 158 165 167 166 171 159 169 171 169 180 174 173 190 195 183 176 169 175 180 182 187 197 202 203 208 214
231 243 269 283 317 332 320 305 311 291 271 269 146 133 137 146 161 173 177 177 172 173 173 167 169 167 166 161 160 174 175 174 191 188 181 192 192 171 166 159 170 185 195 202 205 207 216 219 219
259 266 276 290 331 337 319 304 281 273 289 340 89 137 154 171 183 187 186 184 176 176 180 185 177 170 172 167 173 175 174 176 185 187 188 186 178 179 180 179 181 187 193 201 202 204 216 221 227
251 268 282 298 310 310 307 293 283 274 292 328 95 139 168 185 196 195 192 183 180 181 179 185 189 183 179 179 186 184 184 179 184 183 185 188 184 187 188 190 193 196 196 198 202 212 218 220 227
274 281 279 277 276 271 273 278 273 271 284 288 186 190 186 190 198 200 195 191 186 184 180 179 188 194 192 192 195 192 188 185 186 179 183 191 197 193 189 197 198 206 206 206 205 211 218 220 220
277 270 272 261 256 255 266 261 251 266 265 247 226 209 197 185 187 201 202 193 184 180 184 180 185 194 197 202 206 204 198 190 192 187 186 191 199 205 197 195 199 209 210 208 213 223 220 218 221
251 243 247 243 235 241 236 254 255 261 248 242 232 217 203 191 186 198 203 192 184 168 181 185 182 190 198 200 205 211 210 204 199 194 190 195 203 208 212 208 208 207 205 204 210 221 226 225 225
223 238 243 249 230 232 230 258 264 273 254 259 248 229 197 184 183 185 189 185 174 166 173 175 176 188 200 201 197 210 211 210 205 200 201 204 205 206 210 216 223 211 208 211 216 219 219 231 235
233 247 252 249 256 253 245 257 273 285 282 274 267 262 250 182 175 97 88 80 85 94 121 144 167 187 197 201 199 203 209 209 209 210 212 210 213 212 210 219 230 223 214 214 217 227 226 229 238
298 279 273 286 306 279 255 262 267 272 274 271 280 271 264 317 26 54 53 60 63 57 62 98 147 178 191 202 204 204 209 209 215 215 211 211 212 213 209 218 224 224 223 222 216 219 228 231 221
281 283 284 298 316 305 283 275 279 278 249 247 278 291 278 356 23 43 50 52 54 53 47 45 78 159 199 227 222 218 210 210 216 227 219 214 213 214 212 213 218 220 227 234 228 219 222 226 204
258 262 283 299 316 282 284 278 248 247 228 53 8 3 5 23 35 45 54 52 45 40 31 23 12 55 166 266 228 243 213 223 229 243 242 233 222 217 215 216 217 220 224 230 230 227 221 226 220
256 283 292 289 282 265 248 275 275 226 111 63 47 28 7 7 23 30 44 50 48 32 30 28 18 16 22 76 118 201 230 241 247 257 255 256 236 231 226 226 223 221 222 229 230 226 231 224 227
290 312 283 278 264 276 253 255 282 242 142 103 62 51 29 23 30 27 27 40 45 34 26 23 23 20 20 28 37 189 255 272 312 332 309 284 272 260 252 246 242 240 234 234 233 228 228 229 230
321 344 326 285 242 244 225 216 282 300 81 85 75 59 44 33 31 32 23 29 39 35 24 18 29 27 20 23 22 19 344 338 0 341 327 311 299 303 316 292 261 253 246 243 243 239 234 232 236
333 83 85 212 210 240 179 188 242 22 42 53 54 52 50 40 31 27 23 20 25 28 20 15 22 26 20 19 17 20 8 359 340 310 308 324 324 331 335 325 300 285 276 261 248 248 252 244 239
248 211 174 226 229 287 313 203 151 58 46 49 50 45 38 35 31 28 22 19 22 22 21 20 21 18 16 16 6 11 16 15 1 349 338 332 328 329 336 331 329 323 307 293 268 252 249 249 248
223 227 266 313 320 271 228 196 173 71 62 51 43 41 35 31 32 28 25 22 17 17 14 17 20 18 10 10 13 19 18 19 12 3 358 351 346 345 347 340 342 342 341 330 310 271 258 252 250
265 318 94 184 230 250 244 230 214 169 71 56 41 36 31 27 27 27 24 22 21 20 15 17 24 22 12 10 11 14 20 21 15 11 6 357 347 350 349 346 342 342 342 337 334 323 306 278 262
189 176 221 205 263 252 264 251 45 146 106 81 50 36 28 28 26 22 19 19 19 21 22 23 21 19 14 11 7 9 10 18 20 14 1 353 349 347 343 342 340 338 335 331 328 324 326 311 303
257 206 166 200 254 257 277 280 10 79 75 65 43 33 29 26 25 27 23 22 23 21 21 21 19 20 15 9 11 13 9 13 17 6 358 355 352 346 339 338 337 336 333 331 331 322 318 315 310